Temperature
24 23 22 21 21 20 20 20 20 19 19 19 19 19 19 19 18 18 18 18 18 18 18 18 18 18 18 18 18 18 18 18 18 18 18 18 18 18 17 17 17 17 17
24 23 22 22 21 21 20 20 20 20 19 19 19 19 19 18 18 18 18 18 18 18 18 18 18 18 18 18 18 18 18 18 18 18 19 19 19 18 18 17 17 17 17
25 23 23 22 22 21 21 21 20 20 20 19 19 19 19 19 19 19 18 18 18 18 18 18 18 18 18 18 18 18 18 18 18 18 18 19 20 19 18 17 17 17 17
25 24 23 23 22 22 21 21 20 20 20 20 19 19 19 19 19 19 19 18 18 18 18 18 18 18 18 18 18 18 18 18 18 18 18 18 18 18 18 18 17 17 17
26 25 24 23 23 22 22 21 21 21 20 20 19 19 19 19 19 19 19 19 18 19 18 18 18 18 18 18 18 18 18 18 18 18 18 18 18 18 18 18 17 17 17
26 25 25 24 23 22 22 22 21 21 21 20 20 20 19 19 19 19 19 19 19 19 19 18 19 19 18 18 18 18 18 18 18 18 18 18 18 18 18 18 18 18 17
27 26 25 24 23 23 22 22 21 21 21 20 20 20 20 19 19 19 19 19 19 19 19 19 19 19 19 19 18 19 18 18 18 18 18 18 18 18 18 18 18 17 17
27 26 25 24 23 23 22 22 22 21 21 21 20 20 20 19 19 19 19 19 19 19 19 19 19 19 19 18 19 18 18 18 18 18 18 18 18 18 18 18 18 18 18
27 26 25 24 24 23 22 22 22 21 21 21 21 20 20 20 19 19 19 19 19 19 19 19 19 19 19 19 19 18 18 18 18 18 18 18 18 18 17 17 17 17 18
27 26 25 25 24 23 23 22 22 21 21 21 21 20 20 20 20 19 19 19 19 19 19 19 19 19 19 19 19 18 18 18 18 18 18 18 18 18 17 17 17 17 17
27 26 25 24 24 23 23 22 21 21 21 21 21 20 20 20 20 20 19 20 20 20 19 19 19 19 19 19 19 18 18 18 18 18 18 18 18 17 17 17 17 17 17
26 25 25 24 23 23 22 22 22 21 21 21 21 21 21 20 20 20 20 20 20 20 19 19 19 19 19 18 18 18 18 18 18 18 17 17 17 17 17 17 17 17 16
25 24 24 24 23 23 22 22 22 21 21 21 21 21 21 20 20 20 20 20 20 20 19 19 19 19 18 18 18 18 18 18 18 17 17 17 17 17 17 17 16 16 16
24 24 23 23 22 22 22 22 22 21 21 21 21 21 21 20 20 20 20 20 20 20 19 19 19 19 18 18 18 18 18 17 17 17 17 17 17 16 16 16 16 16 16
23 23 23 22 22 22 22 22 21 21 21 21 21 21 21 21 20 20 20 20 20 19 19 19 19 19 18 18 18 18 18 17 17 17 17 17 17 16 16 16 16 16 15
23 22 22 21 21 21 21 21 21 21 21 21 21 21 21 20 20 20 20 20 20 20 19 19 19 19 18 18 18 18 17 17 17 17 17 16 16 16 16 16 16 15 15
22 22 21 21 21 21 21 21 21 21 21 20 20 20 20 20 20 20 20 19 19 19 19 19 19 19 19 18 18 18 17 17 16 16 16 16 16 16 16 15 15 15 15
21 21 21 21 21 21 21 21 21 21 20 20 20 20 20 20 20 20 19 19 19 19 19 19 18 18 18 18 18 18 17 16 16 16 16 16 16 15 15 15 15 15 14
21 20 21 21 21 21 20 20 20 20 20 20 20 20 20 20 20 20 19 19 19 19 19 18 18 18 18 18 18 17 16 16 16 16 16 16 15 15 15 15 14 14 14
20 20 20 20 20 20 20 20 20 19 19 19 20 20 20 20 20 19 19 19 19 18 18 18 18 18 17 17 17 17 16 16 16 15 15 15 15 15 15 14 14 14 14
19 19 19 19 20 19 19 19 19 19 19 19 19 19 19 19 19 19 19 18 18 18 18 18 17 17 17 17 17 16 16 16 15 15 15 14 15 15 14 14 14 14 14
18 18 18 18 19 19 19 19 19 19 18 18 18 18 18 18 18 18 18 18 17 17 17 17 16 16 16 16 16 16 16 15 15 14 14 14 14 14 14 14 14 14 13
18 18 18 18 18 18 18 18 18 18 18 18 17 17 17 17 17 17 17 17 17 16 16 16 16 16 15 15 16 16 15 15 15 14 14 14 14 14 13 13 13 13 13
17 17 17 17 17 17 17 17 17 17 17 17 17 17 17 17 17 16 16 16 16 16 16 16 15 15 15 15 15 15 15 14 14 14 14 14 13 13 13 13 13 13 13
17 17 16 16 16 16 16 17 17 17 16 16 16 16 16 16 16 16 16 15 15 15 15 15 15 15 15 15 15 14 14 14 14 13 13 13 13 13 13 12 12 12 12
16 16 16 16 16 16 16 16 16 16 16 16 15 16 15 15 15 15 15 15 15 15 14 14 14 14 14 14 14 14 14 14 13 13 13 13 13 12 12 12 12 12 12
Wind_Speed
10 10 9 8 8 8 8 8 7 7 6 5 4 4 3 3 3 3 3 3 2 3 2 2 3 2 2 2 2 2 2 2 1 1 1 1 2 1 2 2 2 1 1
11 11 10 10 9 9 9 9 8 8 7 5 4 3 2 2 2 2 3 3 3 3 3 2 2 2 2 2 2 2 2 1 2 2 2 2 2 3 2 2 2 2 2
13 13 12 11 11 10 10 9 9 8 8 7 5 4 3 3 3 3 3 3 3 3 2 3 2 2 3 2 2 3 3 2 2 2 2 2 1 0 2 2 2 2 2
14 14 14 13 12 12 11 10 9 9 8 8 7 6 4 4 3 3 3 3 3 3 3 3 3 3 2 2 3 3 2 3 3 2 3 3 2 2 1 2 2 2 2
14 15 14 14 13 12 11 11 11 10 9 9 8 7 6 4 3 3 4 3 3 3 4 4 4 3 3 3 2 2 3 3 3 3 2 2 2 4 3 3 2 2 2
14 15 14 13 13 12 12 12 12 11 10 10 9 8 7 6 5 5 4 4 4 4 4 4 4 4 3 3 4 3 4 3 3 3 3 3 3 3 3 4 4 3 2
14 15 15 15 14 14 13 12 12 11 11 10 10 9 8 7 7 6 5 5 4 4 5 4 4 4 4 4 4 4 4 4 4 4 4 4 4 4 3 4 4 4 3
13 14 15 15 15 15 14 13 13 12 11 11 10 9 8 7 6 7 5 5 4 4 4 5 5 5 5 4 4 4 4 4 4 5 4 4 4 4 4 4 4 4 3
12 13 14 15 15 15 15 14 13 12 11 11 10 9 9 8 7 6 6 5 4 5 5 5 5 5 5 5 5 4 4 4 5 5 5 5 4 4 4 5 5 5 5
11 11 12 13 13 13 13 13 13 12 12 11 10 9 9 8 7 7 6 5 5 5 5 5 5 5 5 5 5 5 4 5 5 4 4 5 4 4 4 5 5 5 6
10 10 11 11 11 11 12 12 12 12 11 11 10 9 9 8 8 7 7 6 6 7 7 6 6 6 5 5 5 5 5 5 4 4 5 5 5 5 5 4 5 5 5
8 9 10 10 11 11 12 12 12 12 11 10 10 9 9 8 8 8 7 7 7 7 7 6 6 6 6 5 5 5 5 5 5 5 4 5 4 5 5 5 6 6 6
7 8 9 10 10 10 11 11 11 11 11 11 10 10 9 9 8 8 7 7 6 7 6 6 6 6 5 5 5 5 5 5 5 5 4 4 5 5 5 5 6 6 6
7 7 8 8 8 9 10 10 11 11 10 10 10 10 10 9 8 8 7 7 6 6 6 6 6 5 5 5 5 6 6 5 5 5 4 4 5 5 5 5 6 6 6
7 7 7 7 7 8 9 10 10 10 10 10 11 10 9 8 8 7 7 6 6 7 6 6 6 6 5 5 5 5 6 5 5 5 5 4 3 2 3 4 4 5 5
6 7 7 7 7 7 8 8 9 9 10 10 10 9 9 8 8 7 7 7 7 6 6 6 6 6 5 3 3 5 5 5 5 5 5 5 4 4 5 4 4 4 5
5 5 5 6 6 7 7 7 7 8 8 8 8 7 7 7 7 7 7 7 6 6 6 6 6 6 4 4 4 5 6 6 5 5 5 4 3 4 4 5 7 6 6
3 4 5 5 6 6 7 7 7 7 7 7 7 7 7 7 6 6 6 6 5 6 6 6 6 5 4 5 5 6 7 6 5 5 5 5 4 3 4 5 5 5 5
3 3 4 5 5 5 6 6 6 7 7 7 7 7 7 7 7 6 6 5 5 5 5 5 5 5 4 5 6 6 5 5 6 5 4 4 4 3 4 5 6 6 5
2 3 3 4 4 4 5 6 6 6 6 6 6 6 6 7 7 6 6 5 5 5 5 5 5 5 4 4 5 6 5 5 5 4 4 3 4 3 4 6 6 6 6
2 3 3 3 3 4 4 5 5 5 5 5 5 5 5 6 6 5 5 5 5 5 5 4 3 4 4 4 5 5 5 5 5 4 4 3 4 4 5 7 6 6 6
2 3 3 3 3 3 4 5 5 4 4 4 4 4 5 5 4 5 5 5 5 5 5 4 4 3 3 3 4 4 5 5 5 4 3 1 3 5 6 5 5 7 7
2 2 3 3 2 3 3 3 3 3 3 4 4 4 4 4 4 5 5 5 5 5 5 5 4 3 3 3 5 6 5 5 4 3 2 2 4 5 5 6 7 7 5
1 2 3 3 2 2 1 2 2 3 3 4 3 3 4 3 3 3 4 4 4 5 5 5 4 4 3 3 3 3 3 4 4 3 2 4 6 6 4 5 5 5 5
1 1 1 2 2 2 1 1 2 3 4 4 4 4 4 4 3 2 1 3 2 2 4 4 4 3 4 1 1 2 2 3 2 3 3 3 3 4 3 4 4 4 4
1 1 1 2 1 1 1 2 2 4 4 4 4 4 4 3 3 3 2 6 2 3 1 1 2 1 2 3 2 2 2 1 2 3 3 4 4 4 4 4 4 4 4
Wind_Direction
193 191 192 192 187 183 183 184 184 178 182 184 188 182 182 182 172 175 167 177 183 171 197 193 163 198 174 185 188 187 173 190 179 213 210 212 208 211 215 227 241 211 208
191 190 193 193 192 188 186 185 187 184 188 184 192 191 188 190 182 189 170 189 184 191 193 191 203 181 178 184 193 199 232 208 197 248 259 239 187 185 194 208 216 226 215
196 192 194 194 194 192 191 190 188 186 191 188 189 183 180 205 194 189 183 189 189 191 202 196 209 201 216 188 199 206 220 232 225 240 273 288 330 320 169 197 219 231 247
200 195 194 194 195 193 190 189 187 188 189 191 197 201 203 205 196 199 175 179 185 194 205 213 208 222 221 191 218 190 223 235 246 224 245 280 319 289 267 210 194 206 234
200 198 197 194 194 192 188 186 187 190 190 195 196 203 210 206 197 186 174 198 189 203 212 218 217 218 226 216 238 217 236 235 253 256 247 237 233 250 267 272 259 238 230
200 199 196 192 193 190 189 187 186 190 191 195 200 203 206 207 203 194 192 204 202 202 204 212 215 220 222 214 218 219 216 240 259 266 261 250 248 249 254 269 262 257 241
197 196 194 191 191 192 191 188 186 190 192 195 201 203 206 206 206 208 203 211 207 203 200 214 218 225 220 221 216 208 224 220 228 241 251 256 259 264 261 264 270 271 251
194 195 193 191 192 193 193 190 188 192 193 195 199 203 207 212 211 211 220 212 218 213 200 210 219 223 222 221 211 217 212 214 225 240 250 259 260 257 252 259 266 267 260
190 192 190 191 192 192 193 192 190 191 193 194 194 199 204 214 216 210 218 222 219 215 207 214 221 222 220 223 219 225 224 219 228 233 232 248 258 255 255 256 258 268 273
187 186 186 188 189 189 189 191 191 191 191 192 195 194 199 205 211 216 216 222 222 218 211 214 220 220 217 215 219 222 221 227 232 241 252 256 261 258 252 253 254 255 270
183 182 181 181 180 182 183 186 186 187 189 192 193 196 197 202 207 213 216 216 217 212 213 215 217 218 218 215 215 229 225 229 235 239 240 249 265 265 259 251 251 250 253
178 176 174 173 177 180 182 182 184 187 189 189 189 193 197 202 207 210 214 213 213 213 213 215 217 220 218 215 216 225 226 230 234 241 247 254 251 251 261 257 253 249 246
165 168 169 172 178 181 183 183 185 187 187 185 187 190 197 200 204 208 208 209 210 212 213 214 220 223 221 219 220 226 231 233 237 242 243 252 253 254 257 258 259 256 251
168 168 168 173 177 179 181 185 190 190 188 189 191 194 199 202 203 203 204 205 206 206 208 208 214 220 225 227 230 230 234 238 241 248 248 250 251 255 257 254 255 259 259
176 174 172 171 174 175 179 184 188 190 191 192 196 198 198 199 201 201 205 204 204 204 202 205 210 216 220 226 228 229 229 233 239 244 244 245 242 260 266 269 266 261 258
184 178 174 173 177 179 180 181 185 189 191 195 200 197 195 196 197 198 201 202 203 202 201 207 212 215 219 193 212 237 235 237 239 244 245 238 221 212 209 233 261 266 253
182 178 179 180 181 180 178 179 180 181 186 191 196 195 192 194 198 200 200 206 206 201 203 209 213 217 218 192 191 217 235 241 245 248 251 254 236 218 234 222 219 228 232
180 181 181 179 177 174 177 178 176 177 182 187 190 189 186 186 192 196 201 207 207 205 206 208 212 217 216 185 192 214 228 244 247 246 245 247 261 249 250 250 242 244 238
182 184 184 174 168 170 170 170 174 176 180 185 187 190 190 190 193 194 200 203 203 205 204 205 206 211 212 191 199 217 227 233 243 243 242 244 245 259 244 243 248 252 250
149 155 155 152 155 160 160 164 169 175 183 187 191 195 197 197 199 199 199 199 200 205 205 205 208 210 213 196 196 217 226 229 237 234 231 220 238 258 230 236 245 251 258
134 140 141 139 143 150 157 165 172 183 191 194 196 200 204 204 201 197 195 198 203 206 209 206 210 212 213 192 187 213 228 234 238 242 245 234 190 226 237 241 244 254 265
147 144 134 129 136 150 161 172 184 185 185 189 193 194 195 205 197 198 199 199 200 204 209 210 218 214 211 201 188 200 231 264 242 255 268 271 176 213 230 236 251 258 259
153 148 139 138 144 156 165 172 178 169 167 179 189 187 188 191 193 199 200 199 200 209 214 215 219 215 203 188 179 190 214 247 248 267 338 305 224 223 225 222 235 244 245
140 155 149 146 150 152 151 169 177 176 176 183 187 185 189 187 183 195 199 201 204 210 214 218 223 219 213 210 199 202 203 212 232 253 232 221 230 234 244 234 227 234 244
193 170 167 169 164 164 177 190 185 183 189 192 194 194 193 180 176 183 195 212 214 240 236 231 229 231 227 212 33 256 236 243 240 243 242 246 246 248 246 245 245 246 240
222 191 185 182 178 178 188 203 198 195 198 203 207 208 201 183 181 165 109 46 53 69 48 308 257 217 118 118 94 44 16 344 258 246 251 255 259 264 268 264 259 250 251
Height
1516 1519 1520 1522 1524 1525 1526 1527 1529 1530 1532 1533 1535 1536 1537 1538 1539 1540 1540 1541 1542 1543 1544 1546 1546 1547 1548 1548 1549 1550 1550 1551 1551 1552 1552 1552 1552 1552 1552 1552 1552 1551 1551
1514 1516 1518 1520 1522 1524 1525 1527 1528 1530 1531 1533 1534 1535 1537 1538 1539 1540 1540 1541 1542 1543 1544 1545 1546 1547 1547 1548 1548 1549 1550 1550 1551 1551 1551 1551 1552 1550 1551 1550 1550 1550 1550
1510 1513 1516 1518 1520 1522 1524 1526 1527 1529 1530 1532 1534 1535 1536 1537 1539 1539 1540 1541 1541 1542 1543 1544 1546 1546 1547 1548 1548 1548 1549 1550 1550 1550 1551 1550 1550 1550 1550 1549 1549 1548 1548
1506 1509 1512 1515 1518 1520 1522 1524 1526 1528 1529 1531 1533 1534 1536 1537 1538 1538 1539 1540 1541 1542 1543 1544 1545 1545 1546 1546 1547 1548 1548 1548 1549 1549 1549 1549 1549 1549 1549 1549 1548 1547 1546
1502 1505 1509 1512 1515 1518 1520 1522 1524 1526 1528 1530 1531 1533 1535 1536 1537 1537 1537 1539 1540 1541 1542 1543 1543 1544 1545 1545 1545 1546 1546 1547 1547 1548 1548 1547 1547 1548 1548 1547 1547 1546 1545
1498 1502 1506 1510 1513 1516 1518 1520 1522 1524 1526 1528 1530 1531 1533 1534 1535 1535 1536 1538 1539 1540 1541 1541 1542 1543 1544 1544 1544 1544 1544 1544 1545 1545 1546 1546 1546 1545 1545 1545 1544 1544 1544
1494 1498 1502 1506 1509 1512 1515 1518 1519 1522 1524 1526 1528 1530 1531 1532 1533 1534 1535 1537 1538 1539 1539 1540 1540 1541 1541 1542 1542 1542 1543 1543 1543 1543 1543 1544 1544 1543 1543 1543 1542 1542 1542
1491 1495 1498 1502 1506 1509 1512 1515 1517 1519 1522 1524 1526 1528 1530 1531 1532 1533 1535 1536 1537 1538 1538 1538 1539 1539 1540 1540 1540 1541 1541 1540 1541 1541 1541 1541 1541 1541 1541 1541 1540 1540 1539
1487 1491 1495 1499 1502 1506 1509 1512 1514 1517 1519 1522 1524 1525 1527 1529 1531 1531 1532 1534 1534 1535 1536 1536 1537 1537 1538 1538 1538 1539 1538 1538 1539 1539 1539 1539 1539 1539 1539 1538 1538 1538 1537
1485 1489 1492 1496 1499 1503 1506 1509 1512 1514 1517 1520 1522 1524 1525 1527 1528 1529 1530 1531 1532 1533 1534 1534 1535 1535 1536 1536 1536 1536 1536 1536 1536 1536 1536 1536 1536 1536 1536 1535 1535 1535 1535
1482 1486 1490 1493 1497 1500 1504 1506 1509 1512 1514 1517 1519 1521 1523 1525 1526 1527 1528 1529 1530 1531 1531 1532 1533 1533 1534 1534 1534 1534 1534 1534 1534 1533 1533 1533 1532 1533 1533 1532 1532 1532 1532
1481 1484 1487 1491 1494 1498 1501 1504 1507 1509 1512 1514 1516 1518 1520 1522 1523 1524 1525 1526 1527 1528 1529 1530 1530 1531 1531 1532 1532 1532 1532 1531 1531 1530 1530 1530 1529 1529 1529 1529 1529 1528 1528
1480 1482 1485 1488 1492 1495 1498 1501 1504 1507 1509 1512 1514 1516 1517 1519 1520 1521 1522 1523 1524 1525 1526 1527 1528 1528 1529 1529 1529 1529 1529 1528 1528 1527 1527 1526 1526 1525 1525 1525 1525 1526 1525
1479 1481 1483 1486 1489 1492 1495 1498 1501 1504 1506 1509 1511 1512 1514 1515 1517 1518 1519 1520 1521 1522 1523 1524 1525 1525 1526 1526 1526 1526 1525 1525 1525 1524 1523 1523 1522 1522 1522 1522 1521 1522 1522
1478 1480 1482 1484 1487 1489 1492 1495 1497 1500 1503 1505 1507 1509 1510 1512 1514 1515 1516 1517 1518 1519 1520 1521 1521 1522 1522 1522 1522 1522 1522 1522 1521 1521 1520 1519 1519 1518 1518 1519 1518 1518 1518
1476 1478 1480 1482 1484 1486 1488 1491 1494 1497 1499 1501 1504 1505 1507 1509 1510 1512 1513 1515 1515 1516 1517 1518 1518 1518 1519 1519 1519 1519 1519 1518 1518 1517 1517 1516 1516 1515 1515 1514 1514 1514 1514
1475 1476 1478 1480 1481 1483 1485 1488 1491 1494 1496 1498 1500 1502 1503 1505 1507 1509 1510 1511 1512 1513 1513 1514 1515 1515 1515 1515 1515 1515 1515 1515 1514 1514 1513 1513 1513 1512 1511 1511 1511 1510 1510
1473 1474 1476 1478 1480 1481 1483 1486 1488 1490 1493 1495 1497 1498 1500 1501 1503 1505 1506 1508 1509 1509 1510 1511 1511 1512 1511 1511 1512 1511 1511 1511 1511 1510 1510 1509 1509 1509 1508 1508 1507 1507 1506
1472 1473 1475 1476 1478 1479 1481 1483 1485 1488 1490 1492 1493 1495 1496 1498 1499 1500 1502 1504 1505 1506 1506 1507 1507 1508 1508 1508 1508 1508 1508 1507 1507 1507 1506 1506 1505 1505 1505 1504 1504 1503 1503
1471 1472 1473 1474 1476 1477 1479 1481 1483 1485 1486 1488 1489 1491 1492 1494 1495 1496 1498 1500 1502 1502 1503 1503 1504 1504 1504 1504 1504 1504 1505 1504 1503 1503 1503 1502 1501 1501 1501 1500 1500 1499 1499
1469 1471 1472 1472 1474 1475 1476 1478 1480 1482 1483 1485 1487 1488 1489 1490 1491 1493 1494 1496 1498 1499 1499 1499 1500 1500 1501 1501 1501 1501 1501 1501 1500 1500 1500 1499 1497 1497 1496 1496 1496 1496 1496
1469 1469 1470 1471 1472 1473 1474 1476 1477 1479 1481 1482 1484 1485 1486 1487 1488 1490 1491 1493 1494 1495 1495 1496 1496 1496 1497 1497 1496 1497 1497 1497 1497 1496 1496 1495 1494 1493 1492 1492 1492 1492 1492
1467 1468 1469 1469 1470 1471 1473 1474 1475 1477 1478 1480 1481 1482 1483 1484 1485 1487 1488 1489 1490 1491 1492 1493 1493 1493 1493 1493 1493 1493 1493 1493 1493 1493 1492 1491 1491 1490 1489 1488 1488 1488 1488
1466 1466 1467 1468 1468 1469 1470 1472 1473 1474 1476 1477 1478 1479 1480 1481 1482 1483 1484 1485 1486 1487 1489 1489 1490 1490 1490 1490 1490 1490 1490 1490 1489 1489 1489 1488 1487 1487 1486 1485 1484 1484 1483
1464 1465 1466 1466 1466 1467 1468 1470 1471 1472 1473 1474 1475 1476 1477 1478 1479 1480 1480 1482 1483 1484 1485 1486 1486 1486 1487 1486 1487 1487 1487 1487 1487 1486 1485 1485 1485 1484 1483 1482 1481 1480 1479
1462 1463 1463 1464 1465 1465 1466 1467 1469 1470 1470 1472 1473 1473 1474 1474 1475 1476 1477 1478 1479 1480 1481 1482 1482 1482 1483 1483 1483 1483 1483 1483 1483 1483 1482 1482 1481 1481 1480 1479 1478 1477 1476